Regional Weather Roundup
Issued by NWS

Home | Current Version | Previous Version | Text Only | Print | Product List | Glossary Off
Versions: 1 2 3 4 5 6 7 8 9 10 11 12 13 14 15 16 17 18 19 20 21 22 23 24 25 26 27 28 29 30 31 32 33 34 35 36 37 38 39 40 41 42 43 44 45 46 47 48 49 50

000
ASUS43 KMPX 252301
RWRMN
WEATHER ROUNDUP FOR MINNESOTA
NATIONAL WEATHER SERVICE TWIN CITIES/CHANHASSEN MN
600 PM CDT TUE APR 25 2017


NOTE: "FAIR" INDICATES FEW OR NO CLOUDS BELOW 12,000 FEET WITH NO
SIGNIFICANT WEATHER AND/OR OBSTRUCTIONS TO VISIBILITY. N/A MEANS
CURRENT SKY AND/OR WEATHER CONDITIONS ARE NOT AVAILABLE.

MNZ060>063-068>070-260000-
   Twin Cities Metro

CITY           SKY/WX    TMP DP  RH WIND       PRES   REMARKS
TWIN CITIES    LGT RAIN  54  49  83 NE6       29.55R
ST PAUL        CLOUDY    55  53  93 N3        29.55S FOG
CRYSTAL        LGT RAIN  54  50  86 NE3       29.55R FOG
BLAINE         LGT RAIN  55  54  94 CALM      29.55S
LAKEVILLE      RAIN      50  50 100 CALM      29.55R
EDEN PRAIRIE   LGT RAIN  54  50  86 MISG      29.55R FOG
SOUTH ST PAUL  CLOUDY    54  53  95 CALM      29.55R FOG
LAKE ELMO      LGT RAIN  54  52  94 E3        29.56S
$$
MNZ001>005-007-008-013>017-022>024-027-028-260000-
   Northwest Minnesota

CITY           SKY/WX    TMP DP  RH WIND       PRES   REMARKS
BEMIDJI        CLOUDY    35  30  85 NE17      29.75S WCI  24
HALLOCK        CLOUDY    36  27  69 NE15      29.90R
ROSEAU         CLOUDY    34  27  75 NE24      29.88R WCI  21
WARROAD        CLOUDY    32  27  80 NE22G30   29.89R WCI  19
THIEF RVR FALL CLOUDY    33  26  75 N20G28    29.85R WCI  21
CROOKSTON      CLOUDY    36  28  75 NE16G24   29.85R
FOSSTON        CLOUDY    34  30  86 N16G23    29.79R WCI  23
DETROIT LAKES  CLOUDY    37  34  87 NE14      29.73R
MOORHEAD       CLOUDY    37  30  75 N24       29.77R
PARK RAPIDS    CLOUDY    38  31  76 NE15G21   29.70R
MAHNOMEN       CLOUDY    36  32  84 NE22G28   29.75R
$$
MNZ006-009>011-018-025>026-260000-
   North Central Minnesota

CITY           SKY/WX    TMP DP  RH WIND       PRES   REMARKS
BAUDETTE       CLOUDY    32  25  75 NE21G26   29.86R WCI  20
FLAG ISLAND    CLOUDY    32  25  74 NE21G31   29.91R WCI  20
INTL FALLS     CLOUDY    30  25  81 NE17G25   29.85R WCI  18
WASKISH        CLOUDY    34  28  80 NE15G21   29.82R WCI  24
BIG FORK       CLOUDY    32  28  86 N12G18    29.77R WCI  23
LONGVILLE      CLOUDY    37  34  87 N9G17     29.71R
GRAND RAPIDS   CLOUDY    37  33  85 N14       29.74R
CRANE LAKE     CLOUDY    28  27  93 N13G18    29.83R WCI  18
ORR            CLOUDY    30  25  80 NE5       29.78R WCI  25
COOK           CLOUDY    32  30  93 N7G18     29.76S WCI  26
WALKER         CLOUDY    35  31  87 NE10G16   29.73S WCI  27
$$
MNZ012-019>021-037-260000-
   Northeast Minnesota

CITY           SKY/WX    TMP DP  RH WIND       PRES   REMARKS
DULUTH         CLOUDY    45  40  82 E12       29.66R
ELY            CLOUDY    36  34  93 N8        29.73R
HIBBING        CLOUDY    36  34  92 N13       29.71R
EVELETH        CLOUDY    40  34  80 N9G17     29.71R
DULUTH HARBOR  CLOUDY    39  37  93 NE13      29.68R
TWO HARBORS    RAIN      48  43  81 E8        29.63R
SILVER BAY     CLOUDY    52  45  76 NE5       29.65R
GRAND MARAIS     N/A     42  37  82 VRB7G21   29.67R
G MARAIS ARPRT FLURRIES  34  28  80 N21G29    29.67F WCI  22
$$
MNZ029>031-032-039>041-046>048-054>057-064-260000-
   West Central Minnesota

CITY           SKY/WX    TMP DP  RH WIND       PRES   REMARKS
FERGUS FALLS   CLOUDY    39  37  93 N12       29.69R
WHEATON        CLOUDY    37  34  87 NW21G28   29.71F
MORRIS         CLOUDY    45  37  76 N21       29.64R
ALEXANDRIA     CLOUDY    44  37  76 N15       29.63S
ELBOW LAKE     CLOUDY    42  37  81 NE14G21   29.67S
WADENA         CLOUDY    39  36  87 N13G18    29.67R
GLENWOOD       CLOUDY    46  39  76 N14       29.62R
APPLETON       CLOUDY    45  37  76 N23G29    29.62F
BENSON         DRIZZLE   48  37  66 NE15      29.62S
ORTONVILLE     CLOUDY    39  34  81 N23G30    29.66F
MADISON        CLOUDY    43  39  87 N22G29    29.64S
WILLMAR        RAIN      50  46  87 NW9       29.60R
$$
MNZ033>034-036-042>043-049>051-058-059-260000-
   Central Minnesota

CITY           SKY/WX    TMP DP  RH WIND       PRES   REMARKS
ST CLOUD       LGT RAIN  55  49  80 N9        29.57R
SAUK CENTRE    FAIR      45  38  76 N17G23    29.61S
PAYNESVILLE    RAIN      51  44  76 N6        29.59R
AITKIN         CLOUDY    46  36  66 N16       29.64R
PINE RIVER     CLOUDY    39  36  87 N17       29.71F
BRAINERD       CLOUDY    44  37  76 N17G26    29.64R
STAPLES        CLOUDY    39  34  81 N14       29.66R
LONG PRAIRIE   PTSUNNY   43  36  75 NW14G21   29.62F
LITTLE FALLS   CLOUDY    46  37  71 N6        29.61S
LITCHFIELD     LGT RAIN  55  52  88 N3        29.57R
BUFFALO        RAIN      52  50  92 CALM      29.58R
MAPLE LAKE     RAIN      55  53  95 CALM      29.58R
HUTCHINSON     LGT RAIN  54  52  93 NW6       29.57S
$$
MNZ037-044-045-052-053-260000-
   East Central Minnesota

CITY           SKY/WX    TMP DP  RH WIND       PRES   REMARKS
PRINCETON      LGT RAIN  57  52  82 CALM      29.57R
MORA           CLOUDY    59  39  47 E7        29.59R
CAMBRIDGE      RAIN      57  50  77 CALM      29.55R
RUSH CITY      LGT RAIN  55  52  91 NE5       29.57R
MOOSE LAKE     DRIZZLE   43  39  87 NE7       29.63R
HINCKLEY       RAIN      50  43  76 NE15      29.61R
CLOQUET        DRIZZLE   45  36  70 E14G20    29.65R
MCGREGOR       CLOUDY    46  41  81 N17G23    29.65R
$$
MNZ071>073-080-081-089-090-097-098-260000-
   Southwest Minnesota

CITY           SKY/WX    TMP DP  RH WIND       PRES   REMARKS
MONTEVIDEO     DRIZZLE   43  41  93 N15       29.61F
GRANITE FALLS  DRIZZLE   44  42  91 NW13G18   29.61F
CANBY          DRIZZLE   40  37  90 NW17G24   29.65S
MARSHALL       LGT RAIN  40  38  93 N21G28    29.60F
REDWOOD FALLS  LGT RAIN  45  42  89 NW9       29.57S FOG
OLIVIA         RAIN      50  46  87 NW13      29.58R
PIPESTONE      LGT RAIN  37  34  87 N12G18    29.60R
WINDOM         RAIN      41  41 100 NW17      29.57F
WORTHINGTON    LGT RAIN  40  39  97 N18       29.58F FOG
JACKSON        CLOUDY    41  41 100 N12G17    29.56F
TRACY          LGT RAIN  40  40  97 N15G21    29.60S
SLAYTON        LGT RAIN  37  37  97 N18       29.59F
$$
MNZ065>067-074>077-082>085-091>093-260000-
   South Central Minnesota

CITY           SKY/WX    TMP DP  RH WIND       PRES   REMARKS
MANKATO        RAIN      47  46  97 NW9       29.55S FOG
NEW ULM        RAIN      46  46 100 NW6       29.57R
ST JAMES       LGT RAIN  45  43  93 NW9       29.58S
FAIRMONT       LGT RAIN  44  42  93 N17       29.55S
GLENCOE        DRIZZLE   51  51 100 CALM      29.56R
FARIBAULT      RAIN      50  48  93 N3        29.54R
OWATONNA       CLOUDY    52  48  87 CALM      29.53S FOG
WASECA         CLOUDY    46  45  93 N8        29.55R FOG
ALBERT LEA     DRIZZLE   52  50  93 NE8       29.51R
$$
MNZ078>079-086>088-094>096-260000-
   Southeast Minnesota

CITY           SKY/WX    TMP DP  RH WIND       PRES   REMARKS
ROCHESTER      CLOUDY    53  52  96 NE10      29.52F FOG
RED WING       LGT RAIN  55  52  88 S3        29.55R
STANTON        RAIN      52  50  92 NE5       29.53S
DODGE CENTER   CLOUDY    52  50  93 NE5       29.52S FOG
WINONA         CLOUDY    59  54  82 CALM      29.53F
AUSTIN         CLOUDY    54  52  94 NE8       29.49F
PRESTON        CLOUDY    56  51  83 NE9       29.51F
$$
ABBREVIATIONS USED IN REMARKS
   TC - TEMPERATURES IN CELSIUS
  WCI - WIND CHILL INDEX
   HX - HEAT INDEX
  VSB - VISIBILITY
$$




USA.gov is the U.S. government's official web portal to all federal, state and local government web resources and services.